contact: severine.martini@mio.osupytheas.fr, dominique.lefevre@mio.osupytheas.fr
Project:EMSO Ligure-ouest http://www.emso-fr.org/EMSO-France
Sensor Microcat Sea-Bird SBE37 SMP,  Serial 57510 
DOI : "https://doi.org/10.17882/97948" 
Title:EMSO Ligure Ouest : Data Bathybot capteur Microcat - deploiement 2023-04-28
Datetime,Profondeur,Latitude,Longitude,Temperature,Conductivite,Pression,Salinite
time,m,degree_north,degree_east,degree_C,S/m,db,PSU 
2023-10-19T00:00:49,2420,42.8014,5.9826,13.2985,4.59923,2453.649,38.4877
2023-10-19T00:03:49,2420,42.8014,5.9826,13.2984,4.59923,2453.672,38.4877
2023-10-19T00:06:49,2420,42.8014,5.9826,13.2984,4.59923,2453.649,38.4877
2023-10-19T00:09:49,2420,42.8014,5.9826,13.2985,4.59922,2453.672,38.4876
2023-10-19T00:12:49,2420,42.8014,5.9826,13.2988,4.59923,2453.627,38.4875
2023-10-19T00:15:49,2420,42.8014,5.9826,13.2977,4.59923,2453.664,38.4885
2023-10-19T00:18:49,2420,42.8014,5.9826,13.2999,4.59922,2453.664,38.4862
2023-10-19T00:21:49,2420,42.8014,5.9826,13.2979,4.59923,2453.649,38.4882
2023-10-19T00:24:49,2420,42.8014,5.9826,13.2979,4.59923,2453.649,38.4882
2023-10-19T00:27:49,2420,42.8014,5.9826,13.2982,4.59923,2453.635,38.4880
2023-10-19T00:30:49,2420,42.8014,5.9826,13.2994,4.59922,2453.627,38.4867
2023-10-19T00:33:49,2420,42.8014,5.9826,13.2982,4.59923,2453.664,38.4880
2023-10-19T00:36:49,2420,42.8014,5.9826,13.2976,4.59922,2453.627,38.4885
2023-10-19T00:39:49,2420,42.8014,5.9826,13.2986,4.59923,2453.635,38.4876
2023-10-19T00:42:49,2420,42.8014,5.9826,13.2992,4.59922,2453.649,38.4869
2023-10-19T00:45:49,2420,42.8014,5.9826,13.2986,4.59922,2453.604,38.4875
2023-10-19T00:48:49,2420,42.8014,5.9826,13.2986,4.59923,2453.604,38.4876
2023-10-19T00:51:49,2420,42.8014,5.9826,13.2981,4.59922,2453.627,38.4881
2023-10-19T00:54:49,2420,42.8014,5.9826,13.2988,4.59922,2453.627,38.4873
2023-10-19T00:57:49,2420,42.8014,5.9826,13.2982,4.59922,2453.627,38.4879
2023-10-19T01:00:49,2420,42.8014,5.9826,13.2979,4.59922,2453.612,38.4882
2023-10-19T01:03:49,2420,42.8014,5.9826,13.2986,4.59922,2453.604,38.4875
2023-10-19T01:06:49,2420,42.8014,5.9826,13.2979,4.59922,2453.604,38.4882
2023-10-19T01:09:49,2420,42.8014,5.9826,13.2975,4.59923,2453.604,38.4887
2023-10-19T01:12:49,2420,42.8014,5.9826,13.2981,4.59923,2453.627,38.4881
2023-10-19T01:15:49,2420,42.8014,5.9826,13.2981,4.59922,2453.604,38.4880
2023-10-19T01:18:49,2420,42.8014,5.9826,13.2986,4.59922,2453.604,38.4874
2023-10-19T01:21:49,2420,42.8014,5.9826,13.2982,4.59922,2453.627,38.4879
2023-10-19T01:24:49,2420,42.8014,5.9826,13.2992,4.59922,2453.627,38.4869
2023-10-19T01:27:49,2420,42.8014,5.9826,13.2987,4.59922,2453.604,38.4875
2023-10-19T01:30:49,2420,42.8014,5.9826,13.2980,4.59923,2453.590,38.4882
2023-10-19T01:33:49,2420,42.8014,5.9826,13.2979,4.59921,2453.604,38.4881
2023-10-19T01:36:49,2420,42.8014,5.9826,13.2979,4.59923,2453.627,38.4883
2023-10-19T01:39:49,2420,42.8014,5.9826,13.2976,4.59922,2453.627,38.4885
2023-10-19T01:42:49,2420,42.8014,5.9826,13.2990,4.59922,2453.604,38.4871
2023-10-19T01:45:49,2420,42.8014,5.9826,13.2979,4.59922,2453.590,38.4881
2023-10-19T01:48:49,2420,42.8014,5.9826,13.2985,4.59922,2453.582,38.4876
2023-10-19T01:51:49,2420,42.8014,5.9826,13.2979,4.59922,2453.559,38.4882
2023-10-19T01:54:49,2420,42.8014,5.9826,13.2990,4.59925,2453.604,38.4874
2023-10-19T01:57:49,2420,42.8014,5.9826,13.2982,4.59922,2453.582,38.4880
2023-10-19T02:00:49,2420,42.8014,5.9826,13.2988,4.59922,2453.582,38.4873
2023-10-19T02:03:49,2420,42.8014,5.9826,13.2994,4.59922,2453.604,38.4868
2023-10-19T02:06:49,2420,42.8014,5.9826,13.2979,4.59922,2453.582,38.4882
2023-10-19T02:09:49,2420,42.8014,5.9826,13.2975,4.59922,2453.582,38.4886
2023-10-19T02:12:49,2420,42.8014,5.9826,13.2986,4.59922,2453.582,38.4876
2023-10-19T02:15:49,2420,42.8014,5.9826,13.2985,4.59922,2453.559,38.4876
2023-10-19T02:18:49,2420,42.8014,5.9826,13.2983,4.59922,2453.582,38.4879
2023-10-19T02:21:49,2420,42.8014,5.9826,13.2982,4.59922,2453.582,38.4880
2023-10-19T02:24:49,2420,42.8014,5.9826,13.2979,4.59921,2453.582,38.4881
2023-10-19T02:27:49,2420,42.8014,5.9826,13.2977,4.59922,2453.582,38.4884
2023-10-19T02:30:49,2420,42.8014,5.9826,13.2983,4.59921,2453.582,38.4877
2023-10-19T02:33:49,2420,42.8014,5.9826,13.2988,4.59922,2453.582,38.4873
2023-10-19T02:36:49,2420,42.8014,5.9826,13.2978,4.59921,2453.596,38.4882
2023-10-19T02:39:49,2420,42.8014,5.9826,13.2996,4.59921,2453.582,38.4864
2023-10-19T02:42:49,2420,42.8014,5.9826,13.2979,4.59920,2453.537,38.4881
2023-10-19T02:45:49,2420,42.8014,5.9826,13.2978,4.59922,2453.582,38.4883
2023-10-19T02:48:49,2420,42.8014,5.9826,13.2993,4.59921,2453.567,38.4868
2023-10-19T02:51:49,2420,42.8014,5.9826,13.2977,4.59921,2453.567,38.4884
2023-10-19T02:54:49,2420,42.8014,5.9826,13.2975,4.59919,2453.567,38.4884
2023-10-19T02:57:49,2420,42.8014,5.9826,13.2991,4.59920,2453.604,38.4868
2023-10-19T03:00:50,2420,42.8014,5.9826,13.2988,4.59920,2453.544,38.4872
2023-10-19T03:03:49,2420,42.8014,5.9826,13.2975,4.59920,2453.582,38.4884
2023-10-19T03:06:49,2420,42.8014,5.9826,13.2983,4.59919,2453.582,38.4875
2023-10-19T03:09:49,2420,42.8014,5.9826,13.2982,4.59918,2453.537,38.4876
2023-10-19T03:12:49,2420,42.8014,5.9826,13.2979,4.59920,2453.604,38.4879
2023-10-19T03:15:49,2420,42.8014,5.9826,13.2980,4.59920,2453.604,38.4879
2023-10-19T03:18:49,2420,42.8014,5.9826,13.2981,4.59920,2453.596,38.4878
2023-10-19T03:21:49,2420,42.8014,5.9826,13.2975,4.59919,2453.582,38.4883
2023-10-19T03:24:49,2420,42.8014,5.9826,13.2990,4.59918,2453.559,38.4868
2023-10-19T03:27:49,2420,42.8014,5.9826,13.2986,4.59917,2453.567,38.4871
2023-10-19T03:30:49,2420,42.8014,5.9826,13.2974,4.59919,2453.582,38.4884
2023-10-19T03:33:49,2420,42.8014,5.9826,13.2977,4.59918,2453.537,38.4881
2023-10-19T03:36:49,2420,42.8014,5.9826,13.2979,4.59918,2453.559,38.4879
2023-10-19T03:39:49,2420,42.8014,5.9826,13.2975,4.59917,2453.582,38.4881
2023-10-19T03:42:49,2420,42.8014,5.9826,13.2970,4.59917,2453.582,38.4886
2023-10-19T03:45:49,2420,42.8014,5.9826,13.2980,4.59917,2453.582,38.4877
2023-10-19T03:48:49,2420,42.8014,5.9826,13.2977,4.59917,2453.559,38.4880
2023-10-19T03:51:49,2420,42.8014,5.9826,13.2973,4.59917,2453.582,38.4883
2023-10-19T03:54:49,2420,42.8014,5.9826,13.2973,4.59916,2453.544,38.4883
2023-10-19T03:57:49,2420,42.8014,5.9826,13.2974,4.59916,2453.582,38.4881
2023-10-19T04:00:49,2420,42.8014,5.9826,13.2982,4.59916,2453.559,38.4874
2023-10-19T04:03:49,2420,42.8014,5.9826,13.2980,4.59916,2453.582,38.4875
2023-10-19T04:06:49,2420,42.8014,5.9826,13.2973,4.59916,2453.582,38.4882
2023-10-19T04:09:49,2420,42.8014,5.9826,13.2978,4.59916,2453.567,38.4877
2023-10-19T04:12:49,2420,42.8014,5.9826,13.2976,4.59916,2453.582,38.4879
2023-10-19T04:15:49,2420,42.8014,5.9826,13.2974,4.59915,2453.559,38.4881
2023-10-19T04:18:49,2420,42.8014,5.9826,13.2973,4.59916,2453.559,38.4883
2023-10-19T04:21:49,2420,42.8014,5.9826,13.2974,4.59915,2453.582,38.4881
2023-10-19T04:24:49,2420,42.8014,5.9826,13.2979,4.59915,2453.559,38.4876
2023-10-19T04:27:49,2420,42.8014,5.9826,13.2973,4.59915,2453.582,38.4881
2023-10-19T04:30:49,2420,42.8014,5.9826,13.2975,4.59916,2453.582,38.4881
2023-10-19T04:33:49,2420,42.8014,5.9826,13.2970,4.59915,2453.559,38.4885
2023-10-19T04:36:49,2420,42.8014,5.9826,13.2973,4.59915,2453.582,38.4882
2023-10-19T04:39:49,2420,42.8014,5.9826,13.2983,4.59915,2453.559,38.4872
2023-10-19T04:42:49,2420,42.8014,5.9826,13.2974,4.59915,2453.582,38.4881
2023-10-19T04:45:49,2420,42.8014,5.9826,13.2973,4.59915,2453.559,38.4882
2023-10-19T04:48:49,2420,42.8014,5.9826,13.2978,4.59915,2453.582,38.4877
2023-10-19T04:51:49,2420,42.8014,5.9826,13.2969,4.59915,2453.582,38.4886
2023-10-19T04:54:49,2420,42.8014,5.9826,13.2970,4.59915,2453.559,38.4884
2023-10-19T04:57:49,2420,42.8014,5.9826,13.2984,4.59917,2453.604,38.4872
2023-10-19T05:00:49,2420,42.8014,5.9826,13.2973,4.59916,2453.582,38.4883
2023-10-19T05:03:50,2420,42.8014,5.9826,13.2977,4.59920,2453.582,38.4883
2023-10-19T05:06:49,2420,42.8014,5.9826,13.2970,4.59916,2453.582,38.4885
2023-10-19T05:09:49,2420,42.8014,5.9826,13.2966,4.59916,2453.582,38.4890
2023-10-19T05:12:49,2420,42.8014,5.9826,13.2978,4.59917,2453.567,38.4879
2023-10-19T05:15:49,2420,42.8014,5.9826,13.2980,4.59930,2453.582,38.4889
2023-10-19T05:18:49,2420,42.8014,5.9826,13.2972,4.59916,2453.574,38.4884
2023-10-19T05:21:49,2420,42.8014,5.9826,13.2981,4.59916,2453.582,38.4875
2023-10-19T05:24:49,2420,42.8014,5.9826,13.2975,4.59915,2453.582,38.4880
2023-10-19T05:27:49,2420,42.8014,5.9826,13.2973,4.59915,2453.627,38.4882
2023-10-19T05:30:49,2420,42.8014,5.9826,13.2985,4.59917,2453.582,38.4872
2023-10-19T05:33:49,2420,42.8014,5.9826,13.2979,4.59916,2453.582,38.4876
2023-10-19T05:36:49,2420,42.8014,5.9826,13.2975,4.59916,2453.641,38.4880
2023-10-19T05:39:49,2420,42.8014,5.9826,13.2979,4.59916,2453.627,38.4877
2023-10-19T05:42:49,2420,42.8014,5.9826,13.2979,4.59915,2453.604,38.4875
2023-10-19T05:45:49,2420,42.8014,5.9826,13.2975,4.59915,2453.590,38.4880
2023-10-19T05:48:49,2420,42.8014,5.9826,13.2975,4.59916,2453.604,38.4880
2023-10-19T05:51:49,2420,42.8014,5.9826,13.2972,4.59915,2453.604,38.4883
2023-10-19T05:54:49,2420,42.8014,5.9826,13.2978,4.59916,2453.627,38.4877
2023-10-19T05:57:49,2420,42.8014,5.9826,13.2973,4.59915,2453.627,38.4881
2023-10-19T06:00:49,2420,42.8014,5.9826,13.2975,4.59916,2453.627,38.4881
2023-10-19T06:03:49,2420,42.8014,5.9826,13.2973,4.59917,2453.649,38.4883
2023-10-19T06:06:49,2420,42.8014,5.9826,13.2968,4.59915,2453.604,38.4886
2023-10-19T06:09:49,2420,42.8014,5.9826,13.2982,4.59916,2453.627,38.4873
2023-10-19T06:12:49,2420,42.8014,5.9826,13.2979,4.59916,2453.612,38.4877
2023-10-19T06:15:49,2420,42.8014,5.9826,13.2970,4.59915,2453.627,38.4885
2023-10-19T06:18:49,2420,42.8014,5.9826,13.2978,4.59915,2453.612,38.4876
2023-10-19T06:21:49,2420,42.8014,5.9826,13.2982,4.59917,2453.649,38.4874
2023-10-19T06:24:49,2420,42.8014,5.9826,13.2975,4.59917,2453.635,38.4881
2023-10-19T06:27:49,2420,42.8014,5.9826,13.2979,4.59917,2453.612,38.4878
2023-10-19T06:30:49,2420,42.8014,5.9826,13.2973,4.59915,2453.649,38.4882
2023-10-19T06:33:49,2420,42.8014,5.9826,13.2980,4.59916,2453.649,38.4875
2023-10-19T06:36:49,2420,42.8014,5.9826,13.2978,4.59917,2453.627,38.4878
2023-10-19T06:39:49,2420,42.8014,5.9826,13.2975,4.59917,2453.649,38.4881
2023-10-19T06:42:49,2420,42.8014,5.9826,13.2978,4.59917,2453.672,38.4878
2023-10-19T06:45:49,2420,42.8014,5.9826,13.2968,4.59916,2453.635,38.4887
2023-10-19T06:48:49,2420,42.8014,5.9826,13.2978,4.59915,2453.657,38.4876
2023-10-19T06:51:49,2420,42.8014,5.9826,13.2968,4.59916,2453.672,38.4887
2023-10-19T06:54:49,2420,42.8014,5.9826,13.2977,4.59916,2453.627,38.4879
2023-10-19T06:57:49,2420,42.8014,5.9826,13.2975,4.59916,2453.649,38.4881
2023-10-19T07:00:49,2420,42.8014,5.9826,13.2982,4.59915,2453.649,38.4873
2023-10-19T07:03:49,2420,42.8014,5.9826,13.2972,4.59915,2453.672,38.4883
2023-10-19T07:06:49,2420,42.8014,5.9826,13.2972,4.59915,2453.672,38.4883
2023-10-19T07:09:49,2420,42.8014,5.9826,13.2973,4.59915,2453.709,38.4882
2023-10-19T07:12:49,2420,42.8014,5.9826,13.2977,4.59915,2453.695,38.4878
2023-10-19T07:15:49,2420,42.8014,5.9826,13.2980,4.59915,2453.672,38.4874
2023-10-19T07:18:49,2420,42.8014,5.9826,13.2976,4.59916,2453.695,38.4879
2023-10-19T07:21:49,2420,42.8014,5.9826,13.2972,4.59915,2453.732,38.4882
2023-10-19T07:24:49,2420,42.8014,5.9826,13.2984,4.59917,2453.695,38.4872
2023-10-19T07:27:49,2420,42.8014,5.9826,13.2971,4.59916,2453.695,38.4884
2023-10-19T07:30:49,2420,42.8014,5.9826,13.2978,4.59917,2453.695,38.4878
2023-10-19T07:33:49,2420,42.8014,5.9826,13.2982,4.59917,2453.695,38.4874
2023-10-19T07:36:49,2420,42.8014,5.9826,13.2972,4.59916,2453.695,38.4883
2023-10-19T07:39:49,2420,42.8014,5.9826,13.2975,4.59915,2453.695,38.4879
2023-10-19T07:42:49,2420,42.8014,5.9826,13.2974,4.59916,2453.717,38.4881
2023-10-19T07:45:49,2420,42.8014,5.9826,13.2970,4.59916,2453.717,38.4885
2023-10-19T07:48:49,2420,42.8014,5.9826,13.2977,4.59916,2453.717,38.4878
2023-10-19T07:51:49,2420,42.8014,5.9826,13.2973,4.59917,2453.717,38.4882
2023-10-19T07:54:49,2420,42.8014,5.9826,13.2975,4.59917,2453.717,38.4880
2023-10-19T07:57:49,2420,42.8014,5.9826,13.2976,4.59917,2453.717,38.4880
2023-10-19T08:00:49,2420,42.8014,5.9826,13.2972,4.59916,2453.740,38.4883
2023-10-19T08:03:49,2420,42.8014,5.9826,13.2973,4.59916,2453.725,38.4882
2023-10-19T08:06:49,2420,42.8014,5.9826,13.2975,4.59916,2453.740,38.4880
2023-10-19T08:09:49,2420,42.8014,5.9826,13.2976,4.59916,2453.740,38.4879
2023-10-19T08:12:49,2420,42.8014,5.9826,13.2969,4.59917,2453.740,38.4887
2023-10-19T08:15:49,2420,42.8014,5.9826,13.2971,4.59916,2453.762,38.4884
2023-10-19T08:18:49,2420,42.8014,5.9826,13.2974,4.59916,2453.748,38.4881
2023-10-19T08:21:50,2420,42.8014,5.9826,13.2978,4.59940,2453.748,38.4899
2023-10-19T08:24:49,2420,42.8014,5.9826,13.2970,4.59916,2453.762,38.4884
2023-10-19T08:27:49,2420,42.8014,5.9826,13.2983,4.59916,2453.762,38.4872
2023-10-19T08:30:49,2420,42.8014,5.9826,13.2980,4.59915,2453.740,38.4874
2023-10-19T08:33:49,2420,42.8014,5.9826,13.2982,4.59915,2453.762,38.4873
2023-10-19T08:36:49,2420,42.8014,5.9826,13.2973,4.59915,2453.748,38.4881
2023-10-19T08:39:50,2420,42.8014,5.9826,13.2972,4.59915,2453.717,38.4882
2023-10-19T08:42:49,2420,42.8014,5.9826,13.2978,4.59916,2453.740,38.4877
2023-10-19T08:45:49,2420,42.8014,5.9826,13.2974,4.59916,2453.740,38.4881
2023-10-19T08:48:49,2420,42.8014,5.9826,13.2979,4.59916,2453.725,38.4876
2023-10-19T08:51:49,2420,42.8014,5.9826,13.2978,4.59916,2453.762,38.4877
2023-10-19T08:54:49,2420,42.8014,5.9826,13.2973,4.59916,2453.762,38.4882
2023-10-19T08:57:49,2420,42.8014,5.9826,13.2974,4.59917,2453.740,38.4882
2023-10-19T09:00:49,2420,42.8014,5.9826,13.2972,4.59916,2453.740,38.4883
2023-10-19T09:03:49,2420,42.8014,5.9826,13.2975,4.59917,2453.740,38.4881
2023-10-19T09:06:49,2420,42.8014,5.9826,13.2975,4.59917,2453.762,38.4880
2023-10-19T09:09:49,2420,42.8014,5.9826,13.2968,4.59917,2453.785,38.4888
2023-10-19T09:12:49,2420,42.8014,5.9826,13.2976,4.59917,2453.785,38.4879
2023-10-19T09:15:49,2420,42.8014,5.9826,13.2979,4.59917,2453.770,38.4877
2023-10-19T09:18:49,2420,42.8014,5.9826,13.2974,4.59917,2453.785,38.4881
2023-10-19T09:21:49,2420,42.8014,5.9826,13.2975,4.59917,2453.762,38.4882
2023-10-19T09:24:49,2420,42.8014,5.9826,13.2977,4.59917,2453.762,38.4879
2023-10-19T09:27:49,2420,42.8014,5.9826,13.2971,4.59917,2453.785,38.4884
2023-10-19T09:30:49,2420,42.8014,5.9826,13.2972,4.59916,2453.762,38.4883
2023-10-19T09:33:49,2420,42.8014,5.9826,13.2974,4.59917,2453.762,38.4882
2023-10-19T09:36:49,2420,42.8014,5.9826,13.2971,4.59917,2453.785,38.4884
2023-10-19T09:39:49,2420,42.8014,5.9826,13.2973,4.59917,2453.762,38.4882
2023-10-19T09:42:49,2420,42.8014,5.9826,13.2973,4.59917,2453.762,38.4883
2023-10-19T09:45:49,2420,42.8014,5.9826,13.2981,4.59917,2453.785,38.4875
2023-10-19T09:48:49,2420,42.8014,5.9826,13.2989,4.59920,2453.770,38.4870
2023-10-19T09:51:49,2420,42.8014,5.9826,13.2972,4.59917,2453.785,38.4884
2023-10-19T09:54:49,2420,42.8014,5.9826,13.2974,4.59917,2453.762,38.4882
2023-10-19T09:57:49,2420,42.8014,5.9826,13.2970,4.59917,2453.785,38.4885
2023-10-19T10:00:49,2420,42.8014,5.9826,13.2976,4.59917,2453.807,38.4880
2023-10-19T10:03:49,2420,42.8014,5.9826,13.2974,4.59918,2453.725,38.4883
2023-10-19T10:06:49,2420,42.8014,5.9826,13.2978,4.59917,2453.822,38.4878
2023-10-19T10:09:49,2420,42.8014,5.9826,13.2970,4.59917,2453.748,38.4886
2023-10-19T10:12:49,2420,42.8014,5.9826,13.2986,4.59918,2453.762,38.4871
2023-10-19T10:15:49,2420,42.8014,5.9826,13.2977,4.59917,2453.770,38.4879
2023-10-19T10:18:49,2420,42.8014,5.9826,13.2975,4.59917,2453.748,38.4882
2023-10-19T10:21:49,2420,42.8014,5.9826,13.2971,4.59917,2453.785,38.4885
2023-10-19T10:24:49,2420,42.8014,5.9826,13.2985,4.59917,2453.785,38.4871
2023-10-19T10:27:49,2420,42.8014,5.9826,13.2970,4.59918,2453.785,38.4887
2023-10-19T10:30:49,2420,42.8014,5.9826,13.2981,4.59919,2453.785,38.4877
2023-10-19T10:33:49,2420,42.8014,5.9826,13.2979,4.59917,2453.785,38.4877
2023-10-19T10:36:49,2420,42.8014,5.9826,13.2975,4.59917,2453.762,38.4882
2023-10-19T10:39:49,2420,42.8014,5.9826,13.2976,4.59917,2453.762,38.4880
2023-10-19T10:42:49,2420,42.8014,5.9826,13.2982,4.59918,2453.785,38.4875
2023-10-19T10:45:49,2420,42.8014,5.9826,13.2973,4.59917,2453.807,38.4883
2023-10-19T10:48:49,2420,42.8014,5.9826,13.2975,4.59917,2453.785,38.4882
2023-10-19T10:51:49,2420,42.8014,5.9826,13.2984,4.59917,2453.785,38.4872
2023-10-19T10:54:49,2420,42.8014,5.9826,13.2973,4.59917,2453.725,38.4883
2023-10-19T10:57:49,2420,42.8014,5.9826,13.2982,4.59918,2453.785,38.4875
2023-10-19T11:00:49,2420,42.8014,5.9826,13.2979,4.59918,2453.762,38.4878
2023-10-19T11:03:49,2420,42.8014,5.9826,13.2981,4.59918,2453.762,38.4876
2023-10-19T11:06:49,2420,42.8014,5.9826,13.2989,4.59919,2453.762,38.4868
2023-10-19T11:09:49,2420,42.8014,5.9826,13.2984,4.59918,2453.762,38.4873
2023-10-19T11:12:49,2420,42.8014,5.9826,13.2985,4.59919,2453.748,38.4873
2023-10-19T11:15:49,2420,42.8014,5.9826,13.2979,4.59918,2453.717,38.4878
2023-10-19T11:18:49,2420,42.8014,5.9826,13.2979,4.59918,2453.748,38.4878
2023-10-19T11:21:49,2420,42.8014,5.9826,13.2974,4.59917,2453.762,38.4882
2023-10-19T11:24:49,2420,42.8014,5.9826,13.2980,4.59918,2453.762,38.4877
2023-10-19T11:27:49,2420,42.8014,5.9826,13.2978,4.59918,2453.717,38.4879
2023-10-19T11:30:49,2420,42.8014,5.9826,13.2977,4.59918,2453.740,38.4880
2023-10-19T11:33:49,2420,42.8014,5.9826,13.2979,4.59917,2453.740,38.4877
2023-10-19T11:36:49,2420,42.8014,5.9826,13.2983,4.59917,2453.762,38.4873
2023-10-19T11:39:49,2420,42.8014,5.9826,13.2981,4.59918,2453.740,38.4876
2023-10-19T11:42:49,2420,42.8014,5.9826,13.2975,4.59917,2453.732,38.4882
2023-10-19T11:45:49,2420,42.8014,5.9826,13.2970,4.59917,2453.717,38.4887
2023-10-19T11:48:49,2420,42.8014,5.9826,13.2972,4.59917,2453.717,38.4884
2023-10-19T11:51:49,2420,42.8014,5.9826,13.2970,4.59917,2453.717,38.4887
2023-10-19T11:54:49,2420,42.8014,5.9826,13.2977,4.59917,2453.717,38.4879
2023-10-19T11:57:49,2420,42.8014,5.9826,13.2976,4.59917,2453.717,38.4880
2023-10-19T12:00:49,2420,42.8014,5.9826,13.2979,4.59917,2453.717,38.4878
2023-10-19T12:03:49,2420,42.8014,5.9826,13.2974,4.59917,2453.695,38.4882
2023-10-19T12:06:49,2420,42.8014,5.9826,13.2979,4.59917,2453.717,38.4876
2023-10-19T12:09:49,2420,42.8014,5.9826,13.2975,4.59917,2453.740,38.4881
2023-10-19T12:12:49,2420,42.8014,5.9826,13.2975,4.59917,2453.717,38.4882
2023-10-19T12:15:49,2420,42.8014,5.9826,13.2973,4.59919,2453.717,38.4884
2023-10-19T12:18:49,2420,42.8014,5.9826,13.2973,4.59917,2453.717,38.4884
2023-10-19T12:21:49,2420,42.8014,5.9826,13.2977,4.59917,2453.709,38.4879
2023-10-19T12:24:49,2420,42.8014,5.9826,13.2975,4.59917,2453.702,38.4881
2023-10-19T12:27:49,2420,42.8014,5.9826,13.2974,4.59917,2453.717,38.4882
2023-10-19T12:30:49,2420,42.8014,5.9826,13.2976,4.59917,2453.709,38.4880
2023-10-19T12:33:49,2420,42.8014,5.9826,13.2975,4.59917,2453.680,38.4881
2023-10-19T12:36:48,2420,42.8014,5.9826,13.2982,4.59917,2453.695,38.4875
2023-10-19T12:39:49,2420,42.8014,5.9826,13.2978,4.59917,2453.740,38.4878
2023-10-19T12:42:49,2420,42.8014,5.9826,13.2982,4.59917,2453.717,38.4874
2023-10-19T12:45:49,2420,42.8014,5.9826,13.2973,4.59918,2453.732,38.4884
2023-10-19T12:48:49,2420,42.8014,5.9826,13.2970,4.59917,2453.672,38.4886
2023-10-19T12:51:49,2420,42.8014,5.9826,13.2977,4.59917,2453.695,38.4880
2023-10-19T12:54:49,2420,42.8014,5.9826,13.2974,4.59917,2453.695,38.4882
2023-10-19T12:57:49,2420,42.8014,5.9826,13.2978,4.59917,2453.680,38.4878
2023-10-19T13:00:49,2420,42.8014,5.9826,13.2979,4.59917,2453.695,38.4878
2023-10-19T13:03:49,2420,42.8014,5.9826,13.2975,4.59917,2453.695,38.4882
2023-10-19T13:06:49,2420,42.8014,5.9826,13.2981,4.59917,2453.695,38.4875
2023-10-19T13:09:49,2420,42.8014,5.9826,13.2976,4.59917,2453.672,38.4880
2023-10-19T13:12:49,2420,42.8014,5.9826,13.2980,4.59918,2453.672,38.4877
2023-10-19T13:15:49,2420,42.8014,5.9826,13.2977,4.59918,2453.687,38.4880
2023-10-19T13:18:49,2420,42.8014,5.9826,13.2984,4.59918,2453.672,38.4873
2023-10-19T13:21:49,2420,42.8014,5.9826,13.2982,4.59918,2453.672,38.4876
2023-10-19T13:24:50,2420,42.8014,5.9826,13.2976,4.59917,2453.680,38.4880
2023-10-19T13:27:49,2420,42.8014,5.9826,13.2973,4.59917,2453.695,38.4883
2023-10-19T13:30:49,2420,42.8014,5.9826,13.2975,4.59917,2453.672,38.4882
2023-10-19T13:33:49,2420,42.8014,5.9826,13.2983,4.59919,2453.649,38.4875
2023-10-19T13:36:49,2420,42.8014,5.9826,13.2974,4.59917,2453.695,38.4882
2023-10-19T13:39:49,2420,42.8014,5.9826,13.2974,4.59920,2453.695,38.4885
2023-10-19T13:42:49,2420,42.8014,5.9826,13.2977,4.59918,2453.687,38.4880
2023-10-19T13:45:49,2420,42.8014,5.9826,13.2973,4.59917,2453.695,38.4883
2023-10-19T13:48:49,2420,42.8014,5.9826,13.2976,4.59918,2453.672,38.4881
2023-10-19T13:51:49,2420,42.8014,5.9826,13.2973,4.59919,2453.649,38.4885
2023-10-19T13:54:49,2420,42.8014,5.9826,13.2979,4.59918,2453.649,38.4879
2023-10-19T13:57:49,2420,42.8014,5.9826,13.2976,4.59918,2453.627,38.4881
2023-10-19T14:00:49,2420,42.8014,5.9826,13.2976,4.59919,2453.664,38.4882
2023-10-19T14:03:49,2420,42.8014,5.9826,13.2975,4.59920,2453.649,38.4883
2023-10-19T14:06:49,2420,42.8014,5.9826,13.2976,4.59919,2453.649,38.4882
2023-10-19T14:09:49,2420,42.8014,5.9826,13.2975,4.59918,2453.672,38.4883
2023-10-19T14:12:49,2420,42.8014,5.9826,13.2976,4.59920,2453.627,38.4883
2023-10-19T14:15:49,2420,42.8014,5.9826,13.2975,4.59919,2453.657,38.4883
2023-10-19T14:18:49,2420,42.8014,5.9826,13.2980,4.59919,2453.649,38.4878
2023-10-19T14:21:49,2420,42.8014,5.9826,13.2973,4.59918,2453.672,38.4884
2023-10-19T14:24:49,2420,42.8014,5.9826,13.2978,4.59919,2453.641,38.4880
2023-10-19T14:27:49,2420,42.8014,5.9826,13.2979,4.59919,2453.649,38.4879
2023-10-19T14:30:50,2420,42.8014,5.9826,13.2985,4.59920,2453.567,38.4874
2023-10-19T14:33:49,2420,42.8014,5.9826,13.2975,4.59923,2453.582,38.4888
2023-10-19T14:36:49,2420,42.8014,5.9826,13.2977,4.59920,2453.604,38.4883
2023-10-19T14:39:49,2420,42.8014,5.9826,13.2982,4.59923,2453.641,38.4881
2023-10-19T14:42:49,2420,42.8014,5.9826,13.2974,4.59920,2453.604,38.4885
2023-10-19T14:45:49,2420,42.8014,5.9826,13.2982,4.59920,2453.582,38.4878
2023-10-19T14:48:49,2420,42.8014,5.9826,13.2982,4.59920,2453.582,38.4877
2023-10-19T14:51:49,2420,42.8014,5.9826,13.2975,4.59920,2453.582,38.4884
2023-10-19T14:54:49,2420,42.8014,5.9826,13.2995,4.59919,2453.604,38.4863
2023-10-19T14:57:49,2420,42.8014,5.9826,13.2983,4.59920,2453.559,38.4877
2023-10-19T15:00:50,2420,42.8014,5.9826,13.2978,4.59920,2453.596,38.4881
2023-10-19T15:03:49,2420,42.8014,5.9826,13.2980,4.59921,2453.604,38.4880
2023-10-19T15:06:49,2420,42.8014,5.9826,13.2983,4.59921,2453.544,38.4877
2023-10-19T15:09:49,2420,42.8014,5.9826,13.2981,4.59920,2453.559,38.4879
2023-10-19T15:12:49,2420,42.8014,5.9826,13.2983,4.59927,2453.582,38.4883
2023-10-19T15:15:49,2420,42.8014,5.9826,13.2976,4.59930,2453.582,38.4893
2023-10-19T15:18:49,2420,42.8014,5.9826,13.2978,4.59920,2453.559,38.4881
2023-10-19T15:21:49,2420,42.8014,5.9826,13.2988,4.59921,2453.567,38.4872
2023-10-19T15:24:49,2420,42.8014,5.9826,13.2987,4.59921,2453.567,38.4873
2023-10-19T15:27:49,2420,42.8014,5.9826,13.2987,4.59920,2453.582,38.4873
2023-10-19T15:30:49,2420,42.8014,5.9826,13.2975,4.59922,2453.567,38.4887
2023-10-19T15:33:49,2420,42.8014,5.9826,13.2978,4.59920,2453.596,38.4882
2023-10-19T15:36:49,2420,42.8014,5.9826,13.2979,4.59920,2453.559,38.4880
2023-10-19T15:39:49,2420,42.8014,5.9826,13.2985,4.59920,2453.559,38.4875
2023-10-19T15:42:49,2420,42.8014,5.9826,13.2992,4.59928,2453.544,38.4875
2023-10-19T15:45:49,2420,42.8014,5.9826,13.2981,4.59922,2453.522,38.4880
2023-10-19T15:48:49,2420,42.8014,5.9826,13.2982,4.59922,2453.559,38.4880
2023-10-19T15:51:49,2420,42.8014,5.9826,13.2982,4.59921,2453.559,38.4879
2023-10-19T15:54:49,2420,42.8014,5.9826,13.2983,4.59924,2453.567,38.4880
2023-10-19T15:57:49,2420,42.8014,5.9826,13.2979,4.59920,2453.559,38.4881
2023-10-19T16:00:49,2420,42.8014,5.9826,13.2980,4.59923,2453.596,38.4882
2023-10-19T16:03:49,2420,42.8014,5.9826,13.2985,4.59924,2453.582,38.4878